Wind_Speed
13 13 11 10 10 9 9 9 8 6 5 5 5 5 4 4 4 5 5 5 5 5 5 4 4 4 4 4 3 2 3 3 3 3 3 3 3 3 3 3 3 3 2 1
14 13 12 12 12 11 11 11 10 9 8 8 7 7 6 5 4 4 4 4 5 5 3 4 5 3 3 3 2 1 1 2 2 2 2 3 3 3 3 4 4 3 2 2
15 14 14 13 13 12 12 12 12 12 11 11 10 8 7 7 6 5 5 5 4 4 4 3 4 3 2 2 2 1 0 1 1 2 2 3 3 4 3 4 4 4 3 3
16 16 15 15 14 14 14 13 13 13 14 13 12 10 8 8 7 7 7 6 5 5 5 4 3 3 3 3 2 2 1 0 1 1 2 3 4 4 5 5 5 5 5 5
16 16 16 16 15 15 14 15 14 15 15 15 14 14 12 11 9 8 7 7 6 6 6 5 4 3 3 4 5 4 3 2 2 3 3 4 5 5 6 6 6 6 6 6
17 16 16 16 15 15 15 15 16 17 17 18 16 17 14 12 11 10 9 9 8 7 7 7 6 5 4 5 6 6 5 5 5 5 5 5 5 6 6 7 7 7 7 8
18 17 16 16 16 16 16 16 17 17 18 17 17 18 14 13 13 12 12 10 10 9 9 8 7 7 7 7 8 8 8 7 7 7 7 7 7 7 8 8 9 9 9 10
18 18 17 16 16 16 16 16 17 18 17 16 16 17 14 14 14 14 14 13 11 11 11 10 9 9 10 10 10 10 10 10 9 9 9 9 8 9 10 10 11 11 12 12
17 17 18 17 17 17 16 16 17 19 19 18 17 16 14 14 14 15 14 14 13 12 12 12 11 11 11 11 12 12 12 12 12 11 11 11 11 11 12 12 13 13 14 14
17 17 17 18 19 19 18 17 18 19 20 20 18 17 15 15 16 15 15 15 15 15 14 14 14 13 11 11 12 14 14 13 13 13 13 13 14 14 14 15 15 16 16 17
17 17 17 19 19 19 19 20 19 19 20 20 20 17 16 17 18 17 16 16 17 17 16 15 15 16 15 14 14 14 15 16 16 16 15 16 16 16 16 17 18 18 19 19
19 19 19 19 20 21 21 21 21 21 21 22 22 20 18 18 18 18 18 18 18 19 18 18 17 18 18 18 18 18 17 17 18 18 18 18 19 19 19 20 20 20 20 21
21 22 22 22 22 22 23 23 23 23 24 24 24 23 20 20 21 20 20 20 21 21 21 21 20 20 20 21 21 20 20 20 20 20 20 21 22 23 23 23 23 23 24 23
24 24 24 25 24 24 25 26 26 26 27 27 27 26 24 23 23 23 22 22 23 23 24 24 24 22 22 22 23 23 23 23 23 23 23 23 24 24 25 26 26 25 26 25
26 27 26 27 26 26 27 28 29 29 29 30 29 29 27 25 25 25 24 24 24 24 24 25 26 25 24 24 25 25 26 26 26 26 26 26 26 26 27 27 27 28 27 27
29 29 28 29 29 30 31 31 31 31 32 32 31 31 29 28 26 26 26 26 26 25 25 25 25 26 27 27 27 27 27 28 28 29 29 29 29 29 29 29 30 30 29 29
32 32 31 31 32 32 33 31 31 32 33 33 33 32 32 31 29 28 28 28 27 26 27 27 27 27 28 28 29 30 30 30 30 31 31 32 32 31 31 32 32 32 32 32
34 34 35 34 34 35 33 33 33 33 33 33 33 33 33 33 32 31 31 31 30 30 30 31 31 30 30 30 31 32 33 32 32 33 33 34 33 33 34 34 33 34 34 34
36 37 37 37 36 36 34 34 34 34 34 33 34 34 34 33 32 32 33 34 34 33 33 33 33 33 33 33 33 33 34 34 34 34 34 35 35 36 36 35 35 35 35 34
38 38 38 38 38 37 36 35 36 36 36 35 35 35 35 34 34 33 33 34 34 35 34 35 35 36 35 36 36 36 36 36 35 35 35 36 37 37 37 37 37 36 35 34
38 39 39 38 38 38 37 36 36 37 37 37 37 36 36 36 35 34 34 35 36 36 37 37 37 39 38 38 38 38 38 38 37 36 37 37 37 38 38 37 38 37 36 35
38 38 38 38 39 39 38 37 37 37 37 37 37 37 37 38 37 36 36 37 37 38 38 39 40 40 40 40 40 39 39 40 39 39 38 38 38 39 38 38 37 37 36 35
37 37 37 38 38 39 38 38 38 38 38 38 38 38 38 38 38 38 39 39 39 40 40 40 41 41 42 41 41 41 41 40 41 41 40 40 39 38 37 37 37 36 35 35
37 37 37 38 38 38 38 38 39 39 39 38 38 38 38 39 39 40 40 40 40 40 40 40 41 41 41 41 41 41 41 41 41 40 39 38 37 37 37 37 37 37 37 35
36 37 37 38 38 39 39 39 39 39 40 39 39 39 39 39 40 40 40 39 39 39 39 39 40 40 40 40 41 41 40 40 39 39 37 37 37 36 37 37 37 38 37 36
35 36 36 36 37 38 38 38 40 40 40 40 40 40 40 40 40 40 40 40 40 39 39 40 40 40 40 40 39 40 40 39 40 39 38 38 37 37 37 37 37 38 37 35
Wind_Direction
224 226 226 231 231 232 236 237 235 240 255 275 289 300 312 325 333 339 338 344 350 1 14 17 13 17 22 25 34 59 77 88 103 116 127 140 157 160 162 167 165 159 165 188
228 230 229 229 233 238 237 237 240 248 260 267 269 277 286 297 304 319 327 333 333 339 355 356 352 351 7 7 12 46 86 95 109 127 142 144 160 169 181 191 193 194 201 229
228 230 233 233 234 238 239 242 244 248 252 259 262 265 275 280 288 299 305 312 316 311 316 319 327 323 307 324 328 311 23 110 128 149 166 171 172 177 192 209 213 218 236 252
232 232 235 237 238 241 242 246 249 249 250 253 259 261 265 271 275 288 296 290 293 294 293 290 289 292 285 275 272 287 279 273 208 191 193 195 199 201 209 219 223 239 253 264
234 232 236 239 243 247 247 247 250 252 255 256 258 262 263 268 266 272 279 275 280 285 275 268 265 276 277 265 259 256 251 246 245 244 229 220 214 218 226 233 242 253 260 267
235 235 237 241 242 248 250 251 253 255 258 260 260 263 263 263 266 265 265 271 271 272 264 254 250 262 267 263 258 254 254 252 252 248 240 238 233 235 242 247 250 256 264 270
239 242 242 243 242 248 252 253 255 257 259 262 261 262 261 259 260 259 260 264 265 261 260 260 256 263 263 261 255 251 252 251 248 244 241 243 246 246 247 251 253 259 265 270
239 242 244 246 247 249 251 253 257 261 263 263 261 262 260 258 261 259 259 262 264 262 262 263 261 266 269 263 253 250 252 251 249 247 245 244 254 257 256 258 260 262 265 270
239 240 242 244 245 246 249 255 258 259 259 262 263 266 265 263 264 263 261 260 262 265 267 268 270 269 268 265 254 251 254 255 253 252 252 255 261 262 262 263 263 264 267 271
240 241 240 241 243 245 249 254 256 257 261 266 268 269 272 269 264 265 264 259 261 267 271 271 273 274 272 269 261 253 253 255 256 257 257 260 262 262 264 264 264 265 267 270
245 246 241 242 243 248 252 255 258 261 264 268 273 272 273 275 270 265 263 261 260 262 267 273 274 273 273 271 268 263 258 257 260 261 261 263 266 266 266 267 268 270 268 269
247 248 245 243 247 249 253 256 260 265 269 270 273 275 275 276 272 267 266 264 264 263 264 268 271 272 272 273 272 269 267 265 265 265 264 267 270 270 269 270 270 271 271 271
249 249 248 247 249 252 253 257 259 264 269 272 275 277 276 275 276 273 270 269 268 266 264 267 269 273 272 272 273 274 270 270 271 271 268 269 271 271 271 272 271 272 273 273
250 251 252 253 254 256 258 259 260 263 268 272 275 278 279 278 278 275 273 274 272 269 268 270 271 272 272 272 273 274 272 271 271 271 272 272 272 272 273 272 271 273 276 274
252 254 254 255 256 257 259 261 262 265 268 271 274 276 277 276 276 274 274 273 273 272 271 272 272 271 272 272 273 272 271 271 271 270 270 270 270 272 274 276 274 275 275 275
254 255 256 257 258 259 261 262 263 265 268 270 271 273 274 273 273 273 274 274 274 274 273 273 272 271 271 273 273 272 271 271 272 271 270 271 270 271 274 277 278 278 277 277
255 257 258 258 258 260 261 263 265 266 268 270 270 271 271 271 271 270 270 273 274 274 270 271 272 272 270 272 273 271 270 269 271 271 271 272 273 273 275 276 276 277 278 278
256 257 258 260 260 261 264 264 265 267 269 270 270 270 270 271 270 269 268 270 272 272 271 271 271 270 268 269 271 271 269 269 270 271 271 271 274 274 275 277 277 278 277 277
256 258 259 261 262 263 263 265 266 267 268 270 270 269 270 270 268 267 267 268 271 272 271 271 271 271 269 269 271 271 271 269 269 270 272 274 273 274 275 276 276 276 277 276
257 259 260 262 263 263 263 264 265 266 266 268 269 268 267 267 267 267 267 267 269 270 271 272 273 273 272 271 270 271 270 269 270 271 271 273 274 275 276 276 277 276 276 274
259 260 260 262 263 264 265 265 265 265 267 268 268 268 267 266 266 267 267 267 268 269 271 272 273 274 275 274 274 272 271 272 272 274 274 273 275 277 278 277 277 275 275 273
260 260 261 263 264 265 267 268 267 267 267 267 267 267 266 266 266 266 267 267 267 269 271 273 274 274 274 274 274 274 274 273 273 274 274 275 277 277 277 277 277 275 274 274
260 261 262 263 264 266 267 268 268 268 268 267 266 266 266 267 266 266 266 267 268 270 272 273 273 274 274 274 274 274 273 273 273 272 273 274 274 275 276 276 275 275 274 274
262 262 263 264 265 266 267 267 268 269 268 268 267 267 267 267 266 266 267 268 269 270 271 272 273 273 273 273 272 272 272 272 272 272 272 272 271 273 275 276 275 275 275 273
262 263 264 265 266 266 266 267 268 268 268 268 268 268 269 269 268 267 267 268 269 271 271 271 271 272 273 273 273 273 272 272 271 271 272 272 272 271 273 274 274 274 274 274
263 264 265 266 267 267 267 268 268 269 269 269 270 269 269 270 270 269 269 269 270 271 271 272 272 272 271 271 271 270 270 270 270 270 269 269 270 270 272 272 272 272 270 271
Height
5897 5899 5900 5901 5902 5903 5904 5904 5905 5906 5906 5906 5906 5906 5906 5906 5905 5905 5905 5905 5904 5903 5903 5902 5902 5902 5902 5901 5901 5901 5900 5900 5900 5900 5901 5901 5902 5903 5903 5904 5904 5905 5906 5906
5896 5897 5899 5899 5900 5901 5902 5903 5904 5905 5905 5905 5905 5905 5905 5905 5905 5905 5904 5904 5903 5903 5902 5902 5902 5901 5901 5901 5901 5901 5901 5901 5900 5900 5901 5901 5902 5903 5903 5904 5904 5905 5905 5906
5894 5896 5896 5897 5898 5899 5900 5901 5902 5902 5902 5903 5903 5904 5904 5904 5904 5904 5904 5903 5903 5902 5902 5902 5902 5901 5901 5900 5900 5900 5901 5901 5900 5900 5901 5901 5902 5902 5903 5903 5904 5905 5905 5905
5891 5893 5894 5895 5896 5897 5898 5899 5899 5899 5900 5900 5902 5902 5903 5902 5902 5902 5902 5902 5901 5901 5901 5900 5901 5900 5900 5900 5900 5900 5900 5900 5900 5900 5900 5901 5901 5902 5902 5903 5903 5904 5904 5904
5888 5890 5891 5893 5894 5894 5895 5896 5896 5897 5897 5898 5899 5899 5901 5900 5900 5900 5900 5900 5900 5900 5899 5899 5899 5899 5899 5898 5898 5899 5899 5899 5899 5899 5899 5899 5900 5900 5901 5901 5902 5902 5902 5902
5885 5887 5888 5890 5891 5891 5892 5893 5893 5894 5894 5895 5896 5897 5898 5898 5898 5898 5898 5898 5898 5898 5898 5897 5897 5897 5897 5897 5897 5897 5897 5897 5898 5898 5898 5898 5898 5899 5899 5900 5900 5901 5901 5901
5882 5883 5885 5886 5887 5888 5889 5890 5891 5891 5891 5892 5893 5893 5895 5895 5896 5896 5896 5896 5896 5896 5896 5896 5895 5895 5895 5894 5894 5894 5895 5895 5896 5896 5896 5896 5897 5897 5897 5898 5898 5898 5898 5898
5878 5880 5881 5882 5884 5885 5886 5887 5888 5888 5888 5889 5889 5889 5892 5892 5892 5893 5893 5893 5893 5893 5893 5893 5893 5892 5892 5891 5891 5892 5893 5893 5893 5893 5893 5894 5894 5895 5895 5895 5895 5896 5895 5895
5874 5876 5878 5878 5880 5881 5882 5882 5884 5884 5884 5885 5885 5886 5888 5888 5889 5889 5890 5890 5890 5890 5890 5890 5890 5890 5889 5889 5889 5889 5889 5890 5890 5890 5891 5891 5892 5892 5892 5892 5892 5892 5892 5892
5870 5872 5874 5874 5876 5876 5878 5878 5879 5880 5880 5880 5882 5883 5884 5885 5885 5886 5886 5886 5887 5887 5887 5887 5887 5886 5886 5886 5886 5886 5886 5887 5887 5887 5887 5888 5888 5888 5888 5888 5888 5888 5888 5888
5866 5868 5870 5871 5871 5872 5874 5875 5875 5875 5876 5876 5877 5880 5880 5881 5881 5881 5882 5882 5882 5883 5883 5883 5883 5883 5883 5883 5883 5883 5883 5883 5883 5883 5883 5883 5884 5884 5884 5884 5884 5884 5883 5883
5862 5863 5865 5867 5868 5868 5869 5870 5870 5871 5871 5871 5872 5876 5876 5876 5876 5877 5877 5878 5878 5878 5878 5878 5878 5878 5878 5878 5879 5879 5879 5879 5879 5879 5879 5879 5879 5879 5879 5879 5878 5878 5878 5877
5857 5859 5860 5862 5864 5864 5864 5865 5865 5866 5866 5866 5867 5871 5871 5871 5871 5871 5872 5872 5872 5873 5873 5873 5873 5873 5873 5873 5873 5873 5874 5874 5874 5874 5873 5873 5873 5873 5873 5873 5873 5872 5872 5871
5852 5853 5855 5857 5858 5859 5859 5860 5860 5861 5861 5861 5862 5863 5865 5865 5865 5865 5866 5866 5867 5867 5867 5867 5867 5867 5867 5867 5867 5867 5867 5868 5867 5867 5867 5867 5867 5867 5867 5866 5866 5866 5865 5864
5845 5847 5848 5850 5851 5852 5853 5854 5854 5854 5855 5855 5856 5857 5858 5858 5858 5859 5859 5860 5860 5860 5861 5861 5861 5861 5861 5861 5861 5861 5861 5861 5861 5861 5861 5861 5860 5860 5859 5859 5858 5858 5858 5857
5839 5840 5842 5843 5844 5845 5846 5847 5847 5848 5848 5848 5849 5850 5851 5851 5852 5853 5853 5853 5853 5853 5854 5854 5854 5854 5854 5854 5854 5853 5854 5854 5853 5853 5853 5853 5853 5852 5852 5852 5851 5850 5850 5849
5831 5833 5834 5835 5837 5837 5838 5839 5840 5840 5841 5841 5841 5843 5843 5844 5845 5845 5846 5846 5846 5846 5846 5846 5846 5846 5846 5845 5845 5844 5845 5845 5845 5845 5845 5844 5844 5843 5844 5843 5842 5841 5841 5841
5823 5824 5825 5827 5828 5828 5832 5831 5832 5832 5833 5833 5834 5834 5835 5836 5837 5837 5838 5837 5837 5837 5838 5838 5838 5838 5837 5837 5836 5836 5836 5836 5836 5836 5835 5835 5834 5834 5834 5833 5833 5832 5832 5831
5814 5816 5816 5817 5818 5819 5821 5822 5823 5823 5824 5825 5825 5826 5826 5827 5828 5829 5829 5829 5829 5828 5828 5828 5828 5828 5828 5827 5827 5827 5827 5826 5826 5826 5826 5826 5825 5825 5824 5824 5823 5823 5822 5820
5805 5806 5807 5807 5808 5809 5813 5813 5813 5815 5814 5816 5816 5816 5817 5817 5819 5820 5820 5820 5819 5819 5819 5818 5818 5818 5818 5817 5817 5817 5816 5816 5816 5816 5816 5816 5815 5814 5814 5814 5813 5812 5812 5811
5795 5796 5797 5798 5798 5799 5802 5803 5804 5806 5806 5806 5805 5806 5807 5808 5809 5810 5810 5810 5809 5809 5808 5808 5808 5807 5807 5807 5806 5806 5806 5806 5806 5805 5805 5805 5805 5804 5804 5803 5802 5801 5802 5802
5785 5786 5787 5788 5788 5791 5791 5792 5793 5794 5794 5794 5795 5795 5796 5797 5798 5798 5799 5799 5799 5798 5798 5797 5797 5796 5796 5795 5795 5795 5795 5795 5794 5794 5794 5794 5794 5794 5793 5793 5792 5792 5791 5791
5775 5777 5777 5778 5780 5780 5780 5781 5781 5782 5782 5783 5784 5784 5785 5786 5787 5787 5787 5788 5788 5787 5787 5786 5785 5785 5784 5784 5783 5783 5783 5783 5783 5783 5782 5782 5783 5783 5782 5782 5781 5781 5780 5780
5765 5765 5766 5767 5769 5769 5770 5770 5770 5770 5771 5771 5772 5773 5774 5774 5775 5775 5776 5776 5776 5775 5775 5774 5773 5772 5772 5772 5771 5771 5771 5771 5771 5771 5771 5770 5770 5771 5771 5770 5770 5770 5770 5769
5755 5755 5756 5756 5758 5758 5759 5759 5759 5759 5760 5760 5761 5761 5762 5762 5763 5763 5763 5763 5763 5763 5763 5762 5761 5760 5759 5758 5758 5758 5758 5758 5758 5759 5759 5758 5758 5758 5759 5759 5758 5759 5759 5759
5745 5745 5745 5746 5747 5747 5748 5748 5748 5748 5749 5749 5749 5750 5750 5750 5751 5751 5751 5751 5751 5751 5750 5750 5749 5748 5747 5746 5746 5746 5746 5746 5746 5746 5747 5747 5747 5747 5747 5747 5747 5746 5747 5747